Flag for Switzerland Weather past 2 weeks in Montreux, Vaud, Switzerland

Now
64 °F

Mild.


Feels Like: 64 °F
Forecast: 39 / 61 °F
Wind: 9 mph from North

Location: Aigle

Current Time: Sep 22, 2014 at 1:17:59 PM

Latest Report: Sep 22, 2014 at 12:00 PM


Visibility: N/A

Pressure: 30.06 "Hg

Humidity: 68%

Dew point: 53 °F

Location of MontreuxLocation

Historic Weather in Montreux — Graph

°F

Montreux temperature yesterday

Maximum temperature yesterday: 69 °F (at 12:00 PM)
Minimum temperature yesterday: 58 °F (at 11:00 PM)
Average temperature yesterday: 62 °F

Past Weeks' High & Low Weather Summary

 TemperatureHumidityPressure
High76 °F (Sep 7, 4:00 PM)100% (Sep 10, 7:00 AM)30.11 "Hg (Sep 10, 7:00 AM)
Low47 °F (Sep 12, 8:00 AM)51% (Sep 12, 5:00 PM)29.82 "Hg (Sep 17, 3:00 PM)
Average63 °F82%29.98 "Hg
* Reported Sep 7 12:00 Noon — Sep 22 12:00 Noon, Montreux, Weather by CustomWeather, © 2014

Note: Actual official high and low records may vary slightly from our data, if they occured in-between our weather recording intervals... More about our weather records

Advertising

Montreux weather history for previous 24 hours

 ConditionsComfort  
Time TempWeatherWind HumidityBarometerVisibility
12:00 PM
Sep 22
64 °FMild.9 mph68%30.06 "HgN/A
11:00 AM62 °FPassing clouds.6 mph74%30.08 "Hg22 mi
10:00 AM60 °FCool.2 mph82%30.09 "HgN/A
9:00 AM58 °FCool.2 mph94%30.09 "HgN/A
8:00 AM55 °FFog.1 mph98%30.09 "Hg9 mi
7:00 AM57 °FCool.1 mph97%30.08 "HgN/A
6:00 AM57 °FCool.1 mph98%30.08 "HgN/A
5:00 AM58 °FOvercast.1 mph98%30.07 "Hg3 mi
4:00 AM58 °FCool.No wind98%30.08 "HgN/A
3:00 AM58 °FCool.2 mph96%30.10 "HgN/A
2:00 AM58 °FCool.1 mph97%30.10 "HgN/A
1:00 AM57 °FCool.3 mph98%30.09 "HgN/A
12:00 AM57 °FCool.2 mph95%30.09 "HgN/A
11:00 PM
Sep 21
58 °FCool.1 mph96%30.10 "HgN/A
10:00 PM58 °FCool.3 mph94%30.11 "HgN/A
9:00 PM59 °FCool.3 mph92%30.10 "HgN/A
8:00 PM60 °FOvercast.6 mph86%30.08 "Hg10 mi
7:00 PM59 °FCool.6 mph94%30.09 "HgN/A
6:00 PM65 °FMild.10 mph68%30.04 "HgN/A
5:00 PM68 °FPartly sunny.8 mph76%30.01 "Hg11 mi
4:00 PM67 °FMild.9 mph83%30.02 "HgN/A
3:00 PM64 °FMild.6 mph93%30.05 "HgN/A
2:00 PM65 °FThundershowers. Partly sunny.8 mph85%30.04 "Hg4 mi
1:00 PM67 °FMild.3 mph74%30.03 "HgN/A
Weather by CustomWeather, © 2014

See weather overviewHow to use our weather pages